Showing default

TURKSAT 3A, 33056

Orbit data source: Space-Track

TURKSAT 3A, 33056 is a payload satellite owned by Turksat (TR) in GEO that was launched on Thu, 12 Jun 2008 UTC via an ARIANE 5ECA launch vehicle from the French Guiana (FRGUI). Payload-class satellites include a variety of spacecraft equipped with specific instruments for various scientific and technological missions. These include communications satellites like Starlink; space stations such as the ISS; scientific satellites like the Hubble; Earth observation satellites from companies like Planet Labs, Umbra, and HawkEye 360; GPS; miniature CubeSats for education and research; and military/defense satellites.

Not visible in the next 10 days
Identifier
33056, 2008-030B
Orbit
GEO
Country
Flag of TRTR / TURK
Related business
Manufacturer
Thales Alenia
Mission
Operational Civil Communications
Bus & Motor
SPACEBUS 4000B2, S400
Mass
3,010 kg wet, ~1,500 kg dry
Launch date (UTC)
2008-06-12 (18 years ago)
Launch vehicle
ARIANE 5ECA
Launch site
French Guiana (FRGUI)
Object type
Payload
Rocket body
Debris
Shape & HBR
Box + 2 Pan, 15.0 m
Radar Cross Section
28.939 m², Large (>1 m²)

Expand to show TLE details & history
Last TLE update: 2 days ago

TLE from 2 days ago
0 TURKSAT 3A
1 33056U 08030B   26171.25769021  .00000141  00000-0  00000+0 0  9992
2 33056   0.0640  80.9679 0005125 352.7047 329.5366  1.00272302 52388
Epoch: 2026-06-20T06:11Z
TLE epoch observation values (Epoch: 2026-06-20T06:11:04.434Z)
Latitude
-0.02567°
Longitude
41.9483°
Altitude
35,767.276 km
Speed
3.076 km/s
True Right ascension
02h 52m 46s
True Declination
0° 01' 32"
Sunlit
Object was in daylight at epoch
Visualization orbit readout
Latitude
Unknown
Longitude
Unknown
Altitude
Unknown
Speed
Unknown
Apparent Right ascension
Unknown
Apparent Declination
Unknown
Sunlit
N/A
Visualization observer readout
Local Sidereal Time
00:50:32
Azimuth
Unknown
Elevation
Unknown
Doppler factor
Unknown
Orbital elements
Apogee altitude
35,809.13 km
Perigee altitude
35,765.911 km
Semi-major axis
42,165.657 km
Eccentricity
0.00051
Inclination
0.064°
RAAN
80.9679°
Arg. of periapsis
352.7047°
True anomaly
329.50681°
Mean anomaly
329.5366°
Eccentric anomaly
329.52171°
Mean motion
0.25067 °/min
Orbital period
1,436.14 mins
BSTAR
0
Loading maneuver chart data...
Computing Atmospheric mass density...
Loading historical data...
Loading historical data...
Loading historical data...
Loading historical data...
Loading historical data...
Loading historical data...
Loading historical data...

Documentation

Showing up to 5 results
|